| time (UTC) | temp F | wind direction | speed knots | gust knots | rain 1hr in | rain 24hr in | rain mn in | humidity % | barometer mb |
| 20260905164601 | 73 | 309 | 4.3 | 9.6 | 0.00 | 0.00 | 0.00 | 100 | 1015.2 |
| 20260905163055 | 73 | 235 | 7.0 | 11.3 | 0.00 | 0.00 | 0.00 | 100 | 1015.5 |
| 20260905161550 | 74 | 5 | 0.0 | 0.0 | 0.00 | 0.00 | 0.00 | 100 | 1015.0 |
| 20260905160050 | 73 | 5 | 0.0 | 0.0 | 0.00 | 0.00 | 0.00 | 100 | 1014.9 |
| 20260905154554 | 73 | 5 | 0.0 | 0.9 | 0.00 | 0.00 | 0.00 | 100 | 1014.7 |
| 20260905153042 | 73 | 5 | 0.0 | 0.9 | 0.00 | 0.00 | 0.00 | 100 | 1014.7 |
| 20260905151536 | 73 | 5 | 0.0 | 0.0 | 0.00 | 0.00 | 0.00 | 100 | 1014.3 |
| 20260905150036 | 73 | 5 | 0.0 | 0.0 | 0.00 | 0.00 | 0.00 | 100 | 1014.2 |
| 20260905144535 | 72 | 5 | 0.0 | 0.0 | 0.00 | 0.00 | 0.00 | 100 | 1014.1 |
| 20260905143026 | 72 | 5 | 0.0 | 4.3 | 0.00 | 0.00 | 0.00 | 100 | 1013.9 |
| 20260905141520 | 73 | 360 | 0.0 | 0.0 | 0.00 | 0.00 | 0.00 | 100 | 1013.8 |
| 20260905140015 | 73 | 11 | 0.0 | 5.2 | 0.00 | 0.00 | 0.00 | 100 | 1013.5 |
| 20260905134511 | 73 | 16 | 0.9 | 3.5 | 0.00 | 0.00 | 0.00 | 100 | 1013.2 |
| 20260905133006 | 73 | 23 | 0.0 | 0.0 | 0.00 | 0.00 | 0.00 | 100 | 1012.9 |
| 20260905131501 | 73 | 23 | 0.0 | 0.0 | 0.00 | 0.00 | 0.00 | 100 | 1012.8 |
| 20260905130057 | 0 | 23 | 0.0 | 0.0 | 0.00 | 0.00 | 0.00 | 1012.6 | |
| 20260905124552 | 0 | 23 | 0.0 | 0.0 | 0.00 | 0.00 | 0.00 | 1012.3 | |
| 20260905123049 | 0 | 23 | 0.0 | 0.0 | 0.00 | 0.00 | 0.00 | 1012.1 | |
| 20260905121544 | 0 | 23 | 0.0 | 0.0 | 0.00 | 0.00 | 0.00 | 1011.9 | |
| 20260905120039 | 0 | 23 | 0.0 | 0.0 | 0.00 | 0.00 | 0.00 | 1011.9 | |
| 20260905114542 | 0 | 20 | 0.0 | 0.0 | 0.00 | 0.00 | 0.00 | 1011.7 | |
| 20260905113037 | 0 | 19 | 0.0 | 0.0 | 0.00 | 0.00 | 0.00 | 1011.7 | |
| 20260905111526 | 0 | 18 | 0.0 | 2.6 | 0.00 | 0.00 | 0.00 | 1011.7 | |
| 20260905110022 | 0 | 15 | 0.0 | 4.3 | 0.00 | 0.00 | 0.00 | 1011.6 | |
| 20260905104522 | 0 | 15 | 0.0 | 1.7 | 0.00 | 0.00 | 0.00 | 1011.8 | |
| 20260905103023 | 0 | 14 | 0.0 | 3.5 | 0.00 | 0.00 | 0.00 | 1011.9 | |
| 20260905101509 | 72 | 9 | 0.0 | 4.3 | 0.00 | 0.00 | 0.00 | 100 | 1011.8 |
| 20260905100010 | 71 | 29 | 0.0 | 0.0 | 0.00 | 0.00 | 0.00 | 100 | 1011.9 |
| 20260905094600 | 71 | 29 | 0.0 | 0.0 | 0.00 | 0.00 | 0.00 | 100 | 1011.6 |
| 20260905093100 | 71 | 17 | 0.0 | 0.0 | 0.00 | 0.00 | 0.00 | 100 | 1011.1 |
| 20260905091600 | 72 | 15 | 0.0 | 0.0 | 0.00 | 0.00 | 0.00 | 100 | 1010.9 |
| 20260905090046 | 72 | 15 | 0.0 | 0.0 | 0.00 | 0.00 | 0.00 | 100 | 1011.1 |
| 20260905084549 | 72 | 15 | 0.0 | 0.0 | 0.00 | 0.00 | 0.00 | 100 | 1011.3 |
| 20260905083040 | 73 | 27 | 0.0 | 4.3 | 0.00 | 0.00 | 0.00 | 100 | 1011.3 |
| 20260905081534 | 73 | 360 | 0.0 | 0.9 | 0.00 | 0.00 | 0.00 | 100 | 1011.4 |
| 20260905080040 | 72 | 198 | 0.0 | 0.0 | 0.00 | 0.00 | 0.00 | 100 | 1011.5 |
| 20260905074524 | 72 | 198 | 0.0 | 0.0 | 0.00 | 0.00 | 0.00 | 100 | 1011.3 |
| 20260905073024 | 72 | 198 | 0.0 | 0.0 | 0.00 | 0.00 | 0.00 | 100 | 1011.5 |
| 20260905071515 | 72 | 198 | 0.0 | 0.0 | 0.00 | 0.00 | 0.00 | 100 | 1011.4 |
| 20260905070016 | 73 | 198 | 0.0 | 0.0 | 0.00 | 0.00 | 0.00 | 100 | 1011.4 |
| 20260905064525 | 73 | 198 | 0.0 | 0.0 | 0.00 | 0.00 | 0.00 | 100 | 1011.4 |
| 20260905063011 | 73 | 198 | 0.0 | 0.0 | 0.00 | 0.00 | 0.00 | 100 | 1011.4 |
| 20260905061506 | 73 | 198 | 0.0 | 0.0 | 0.00 | 0.00 | 0.00 | 100 | 1011.5 |
| 20260905060005 | 73 | 198 | 0.0 | 0.0 | 0.00 | 0.00 | 0.00 | 100 | 1011.3 |
| 20260905054558 | 74 | 198 | 0.0 | 0.0 | 0.00 | 0.00 | 0.00 | 100 | 1011.2 |
| 20260905053059 | 74 | 198 | 0.0 | 0.0 | 0.00 | 0.00 | 0.00 | 100 | 1011.2 |
| 20260905051549 | 74 | 198 | 0.0 | 0.0 | 0.00 | 0.00 | 0.00 | 100 | 1011.1 |
| 20260905050044 | 74 | 198 | 0.0 | 0.0 | 0.00 | 0.00 | 0.00 | 100 | 1011.1 |
| 20260905044542 | 74 | 198 | 0.0 | 0.0 | 0.00 | 0.00 | 0.00 | 100 | 1010.9 |
| 20260905043041 | 74 | 198 | 0.0 | 0.0 | 0.00 | 0.00 | 0.00 | 100 | 1010.9 |
| 20260905041540 | 74 | 198 | 0.0 | 0.0 | 0.00 | 0.00 | 0.00 | 100 | 1011.0 |
| 20260905040040 | 75 | 198 | 0.0 | 0.0 | 0.00 | 0.00 | 0.00 | 100 | 1010.9 |
| 20260905034539 | 75 | 198 | 0.0 | 0.0 | 0.00 | 0.00 | 0.00 | 100 | 1011.0 |
| 20260905033037 | 76 | 198 | 0.0 | 0.0 | 0.00 | 0.00 | 0.00 | 100 | 1011.0 |
| 20260905031531 | 76 | 198 | 0.0 | 0.0 | 0.00 | 0.00 | 0.00 | 100 | 1010.9 |
| 20260905030034 | 77 | 198 | 0.0 | 0.0 | 0.00 | 0.00 | 0.00 | 100 | 1010.9 |
| 20260905024530 | 77 | 198 | 0.0 | 0.0 | 0.00 | 0.00 | 0.00 | 5 | 1010.8 |
| 20260905023020 | 77 | 198 | 0.0 | 0.0 | 0.00 | 0.00 | 0.00 | 12 | 1010.6 |
| 20260905021518 | 78 | 198 | 0.0 | 0.0 | 0.00 | 0.00 | 0.00 | 18 | 1010.5 |
| 20260905020025 | 78 | 198 | 0.0 | 0.0 | 0.00 | 0.00 | 0.00 | 26 | 1010.4 |
| 20260905014516 | 79 | 198 | 0.0 | 0.0 | 0.00 | 0.00 | 0.00 | 24 | 1010.2 |
| 20260905013014 | 80 | 198 | 0.0 | 0.0 | 0.00 | 0.00 | 0.00 | 25 | 1010.1 |
| 20260905011510 | 81 | 198 | 0.0 | 0.0 | 0.00 | 0.00 | 0.00 | 29 | 1009.8 |
| 20260905010010 | 82 | 198 | 0.0 | 0.0 | 0.00 | 0.00 | 0.00 | 43 | 1009.7 |
| 20260905004510 | 83 | 198 | 0.0 | 0.0 | 0.00 | 0.00 | 0.00 | 49 | 1009.7 |
| 20260905003008 | 83 | 198 | 0.0 | 0.0 | 0.00 | 0.00 | 0.00 | 56 | 1009.7 |
| 20260905001507 | 84 | 198 | 0.0 | 0.0 | 0.00 | 0.00 | 0.00 | 63 | 1009.6 |
| 20260905000005 | 85 | 198 | 0.0 | 0.0 | 0.00 | 0.00 | 0.00 | 67 | 1009.5 |
| 20260904234507 | 86 | 198 | 0.0 | 0.0 | 0.00 | 0.00 | 0.00 | 69 | 1009.6 |
| 20260904233004 | 87 | 198 | 0.0 | 0.0 | 0.00 | 0.00 | 0.00 | 69 | 1009.4 |
| 20260904231504 | 88 | 198 | 0.0 | 0.0 | 0.00 | 0.00 | 0.00 | 69 | 1009.2 |
| 20260904230003 | 88 | 197 | 0.0 | 0.9 | 0.00 | 0.00 | 0.00 | 69 | 1009.2 |
| 20260904224501 | 88 | 202 | 0.0 | 2.6 | 0.00 | 0.00 | 0.00 | 69 | 1009.1 |
| 20260904223001 | 89 | 246 | 0.0 | 0.0 | 0.00 | 0.00 | 0.00 | 68 | 1008.9 |
| 20260904221610 | 89 | 247 | 1.7 | 4.3 | 0.00 | 0.00 | 0.00 | 69 | 1008.8 |
| 20260904214611 | 88 | 360 | 0.0 | 0.0 | 0.00 | 0.00 | 0.00 | 69 | 1008.8 |
| 20260904213058 | 88 | 159 | 0.0 | 0.0 | 0.00 | 0.00 | 0.00 | 69 | 1008.9 |
| 20260904211606 | 89 | 159 | 0.0 | 1.7 | 0.00 | 0.00 | 0.00 | 67 | 1009.1 |
| 20260904210057 | 90 | 222 | 0.0 | 2.6 | 0.00 | 0.00 | 0.00 | 66 | 1009.0 |
| 20260904204556 | 90 | 213 | 0.0 | 4.3 | 0.00 | 0.00 | 0.00 | 67 | 1008.9 |
| 20260904203057 | 90 | 259 | 0.0 | 0.0 | 0.00 | 0.00 | 0.00 | 67 | 1008.8 |
| 20260904201554 | 90 | 124 | 0.0 | 1.7 | 0.00 | 0.00 | 0.00 | 68 | 1008.8 |
| 20260904200106 | 89 | 138 | 0.0 | 2.6 | 0.00 | 0.00 | 0.00 | 68 | 1008.8 |
| 20260904194557 | 89 | 339 | 0.0 | 1.7 | 0.00 | 0.00 | 0.00 | 69 | 1008.9 |
| 20260904193053 | 88 | 89 | 0.0 | 6.1 | 0.00 | 0.00 | 0.00 | 68 | 1008.9 |
| 20260904191552 | 88 | 14 | 0.0 | 5.2 | 0.00 | 0.00 | 0.00 | 68 | 1009.0 |
| 20260904190051 | 88 | 328 | 0.0 | 3.5 | 0.00 | 0.00 | 0.00 | 68 | 1008.8 |
| 20260904184550 | 88 | 201 | 0.0 | 5.2 | 0.00 | 0.00 | 0.00 | 69 | 1008.8 |
| 20260904183050 | 88 | 224 | 0.0 | 0.9 | 0.00 | 0.00 | 0.00 | 68 | 1009.0 |
| 20260904181554 | 89 | 250 | 0.0 | 2.6 | 0.00 | 0.00 | 0.00 | 66 | 1009.1 |
| 20260904180049 | 90 | 317 | 0.0 | 2.6 | 0.00 | 0.00 | 0.00 | 64 | 1009.1 |
| 20260904174553 | 90 | 234 | 0.0 | 0.0 | 0.00 | 0.00 | 0.00 | 66 | 1009.2 |
| 20260904173045 | 87 | 234 | 0.0 | 0.0 | 0.00 | 0.00 | 0.00 | 69 | 1009.3 |
| 20260904171554 | 87 | 234 | 0.0 | 0.0 | 0.00 | 0.00 | 0.00 | 68 | 1009.3 |
| 20260904170040 | 87 | 234 | 0.0 | 0.0 | 0.00 | 0.00 | 0.00 | 68 | 1009.3 |